Time,TemperatureF,DewpointF,PressureIn,WindDirection,WindDirectionDegrees,WindSpeedMPH,WindSpeedGustMPH,Humidity,HourlyPrecipIn,Conditions,Clouds,dailyrainin,SoftwareType,DateUTC
2013-06-17 00:14:00,77.1,-99.9,30.11,North,355,0.0,-999.0,0,-99.99,,,0.00,weatherlink.com 1.10,2013-06-17 04:14:00,
2013-06-17 00:29:00,76.9,-99.9,30.11,NW,321,3.0,-999.0,0,-99.99,,,0.00,weatherlink.com 1.10,2013-06-17 04:29:00,
2013-06-17 00:44:00,76.9,-99.9,30.11,North,355,4.0,-999.0,0,-99.99,,,0.00,weatherlink.com 1.10,2013-06-17 04:44:00,
2013-06-17 00:59:00,77.2,-99.9,30.10,NNW,348,0.0,-999.0,0,-99.99,,,0.00,weatherlink.com 1.10,2013-06-17 04:59:00,
2013-06-17 01:14:00,77.7,-99.9,30.10,WNW,296,1.0,-999.0,0,-99.99,,,0.00,weatherlink.com 1.10,2013-06-17 05:14:00,
2013-06-17 01:29:00,77.5,-99.9,30.10,North,355,2.0,-999.0,0,-99.99,,,0.00,weatherlink.com 1.10,2013-06-17 05:29:00,
2013-06-17 01:44:00,76.5,-99.9,30.10,NE,44,2.0,-999.0,0,-99.99,,,0.00,weatherlink.com 1.10,2013-06-17 05:44:00,
2013-06-17 01:59:00,76.4,-99.9,30.09,North,9,3.0,-999.0,0,-99.99,,,0.00,weatherlink.com 1.10,2013-06-17 05:59:00,
2013-06-17 02:14:00,76.8,-99.9,30.09,North,351,4.0,-999.0,0,-99.99,,,0.00,weatherlink.com 1.10,2013-06-17 06:14:00,
2013-06-17 02:29:00,76.9,-99.9,30.09,North,10,0.0,-999.0,0,-99.99,,,0.00,weatherlink.com 1.10,2013-06-17 06:29:00,
2013-06-17 02:45:00,76.9,-99.9,30.09,North,355,0.0,-999.0,0,-99.99,,,0.00,weatherlink.com 1.10,2013-06-17 06:45:00,
2013-06-17 03:00:00,77.1,-99.9,30.09,North,9,3.0,-999.0,0,-99.99,,,0.00,weatherlink.com 1.10,2013-06-17 07:00:00,
2013-06-17 03:15:00,76.9,-99.9,30.08,NW,314,0.0,-999.0,0,-99.99,,,0.00,weatherlink.com 1.10,2013-06-17 07:15:00,
2013-06-17 03:30:00,76.6,-99.9,30.08,NE,34,3.0,-999.0,0,-99.99,,,0.00,weatherlink.com 1.10,2013-06-17 07:30:00,
2013-06-17 03:45:00,76.8,-99.9,30.07,North,5,0.0,-999.0,0,-99.99,,,0.00,weatherlink.com 1.10,2013-06-17 07:45:00,
2013-06-17 04:00:00,77.2,-99.9,30.07,North,360,0.0,-999.0,0,-99.99,,,0.00,weatherlink.com 1.10,2013-06-17 08:00:00,
2013-06-17 04:15:00,76.9,-99.9,30.07,NE,51,0.0,-999.0,0,-99.99,,,0.00,weatherlink.com 1.10,2013-06-17 08:15:00,
2013-06-17 04:30:00,77.0,-99.9,30.08,North,11,0.0,-999.0,0,-99.99,,,0.00,weatherlink.com 1.10,2013-06-17 08:30:00,
2013-06-17 04:45:00,77.1,-99.9,30.08,NNE,24,0.0,-999.0,0,-99.99,,,0.00,weatherlink.com 1.10,2013-06-17 08:45:00,
2013-06-17 05:00:00,77.2,-99.9,30.08,NNE,20,2.0,-999.0,0,-99.99,,,0.00,weatherlink.com 1.10,2013-06-17 09:00:00,
2013-06-17 05:15:00,77.3,-99.9,30.08,NNE,24,0.0,-999.0,0,-99.99,,,0.00,weatherlink.com 1.10,2013-06-17 09:15:00,
2013-06-17 05:30:00,77.5,-99.9,30.08,NE,47,0.0,-999.0,0,-99.99,,,0.00,weatherlink.com 1.10,2013-06-17 09:30:00,
2013-06-17 05:45:00,77.2,-99.9,30.08,NE,46,0.0,-999.0,0,-99.99,,,0.00,weatherlink.com 1.10,2013-06-17 09:45:00,
2013-06-17 06:00:00,77.0,-99.9,30.08,NE,40,0.0,-999.0,0,-99.99,,,0.00,weatherlink.com 1.10,2013-06-17 10:00:00,
2013-06-17 06:16:00,76.8,-99.9,30.08,NE,39,0.0,-999.0,0,-99.99,,,0.00,weatherlink.com 1.10,2013-06-17 10:16:00,
2013-06-17 06:31:00,77.0,-99.9,30.07,NE,38,0.0,-999.0,0,-99.99,,,0.00,weatherlink.com 1.10,2013-06-17 10:31:00,
2013-06-17 06:46:00,77.1,-99.9,30.07,NE,38,0.0,-999.0,0,-99.99,,,0.00,weatherlink.com 1.10,2013-06-17 10:46:00,
2013-06-17 07:01:00,77.5,-99.9,30.08,NNE,33,3.0,-999.0,0,-99.99,,,0.00,weatherlink.com 1.10,2013-06-17 11:01:00,
2013-06-17 07:16:00,77.9,-99.9,30.08,NNE,33,1.0,-999.0,0,-99.99,,,0.00,weatherlink.com 1.10,2013-06-17 11:16:00,
2013-06-17 07:31:00,78.4,-99.9,30.08,NE,39,1.0,-999.0,0,-99.99,,,0.00,weatherlink.com 1.10,2013-06-17 11:31:00,
2013-06-17 07:46:00,79.1,-99.9,30.09,NNE,30,0.0,-999.0,0,-99.99,,,0.00,weatherlink.com 1.10,2013-06-17 11:46:00,
2013-06-17 08:01:00,79.6,-99.9,30.09,NNE,17,0.0,-999.0,0,-99.99,,,0.00,weatherlink.com 1.10,2013-06-17 12:01:00,
2013-06-17 08:16:00,80.1,-99.9,30.09,North,5,0.0,-999.0,0,-99.99,,,0.00,weatherlink.com 1.10,2013-06-17 12:16:00,
2013-06-17 08:31:00,80.7,-99.9,30.09,NE,38,0.0,-999.0,0,-99.99,,,0.00,weatherlink.com 1.10,2013-06-17 12:31:00,
2013-06-17 08:46:00,81.0,-99.9,30.09,East,82,2.0,-999.0,0,-99.99,,,0.00,weatherlink.com 1.10,2013-06-17 12:46:00,
2013-06-17 09:01:00,80.2,-99.9,30.09,ENE,59,2.0,-999.0,0,-99.99,,,0.00,weatherlink.com 1.10,2013-06-17 13:01:00,
2013-06-17 09:16:00,80.6,-99.9,30.09,NE,53,1.0,-999.0,0,-99.99,,,0.00,weatherlink.com 1.10,2013-06-17 13:16:00,
2013-06-17 09:31:00,81.4,-99.9,30.08,North,360,6.0,-999.0,0,-99.99,,,0.00,weatherlink.com 1.10,2013-06-17 13:31:00,
2013-06-17 09:47:00,81.7,-99.9,30.08,NNE,22,2.0,-999.0,0,-99.99,,,0.00,weatherlink.com 1.10,2013-06-17 13:47:00,
2013-06-17 10:02:00,82.0,-99.9,30.07,NNE,13,5.0,-999.0,0,-99.99,,,0.00,weatherlink.com 1.10,2013-06-17 14:02:00,
2013-06-17 10:17:00,83.2,-99.9,30.07,North,11,3.0,-999.0,0,-99.99,,,0.00,weatherlink.com 1.10,2013-06-17 14:17:00,
2013-06-17 10:32:00,82.6,-99.9,30.07,NNE,14,0.0,-999.0,0,-99.99,,,0.00,weatherlink.com 1.10,2013-06-17 14:32:00,
2013-06-17 10:47:00,83.2,-99.9,30.07,North,355,1.0,-999.0,0,-99.99,,,0.00,weatherlink.com 1.10,2013-06-17 14:47:00,
2013-06-17 11:02:00,85.2,-99.9,30.07,North,360,0.0,-999.0,0,-99.99,,,0.00,weatherlink.com 1.10,2013-06-17 15:02:00,
2013-06-17 11:17:00,84.7,-99.9,30.08,WNW,286,2.0,-999.0,0,-99.99,,,0.00,weatherlink.com 1.10,2013-06-17 15:17:00,
2013-06-17 11:32:00,84.5,-99.9,30.08,NW,321,2.0,-999.0,0,-99.99,,,0.00,weatherlink.com 1.10,2013-06-17 15:32:00,
2013-06-17 11:47:00,84.7,-99.9,30.07,WNW,294,1.0,-999.0,0,-99.99,,,0.00,weatherlink.com 1.10,2013-06-17 15:47:00,
2013-06-17 12:02:00,86.0,-99.9,30.07,NW,326,1.0,-999.0,0,-99.99,,,0.00,weatherlink.com 1.10,2013-06-17 16:02:00,
2013-06-17 12:17:00,86.2,-99.9,30.07,NNE,31,0.0,-999.0,0,-99.99,,,0.00,weatherlink.com 1.10,2013-06-17 16:17:00,
2013-06-17 12:32:00,84.8,-99.9,30.07,NW,304,6.0,-999.0,0,-99.99,,,0.00,weatherlink.com 1.10,2013-06-17 16:32:00,
2013-06-17 12:47:00,84.3,-99.9,30.07,NE,34,3.0,-999.0,0,-99.99,,,0.00,weatherlink.com 1.10,2013-06-17 16:47:00,
2013-06-17 13:03:00,83.9,-99.9,30.07,North,5,1.0,-999.0,0,-99.99,,,0.00,weatherlink.com 1.10,2013-06-17 17:03:00,
2013-06-17 13:18:00,83.6,-99.9,30.07,NNE,17,1.0,-999.0,0,-99.99,,,0.00,weatherlink.com 1.10,2013-06-17 17:18:00,
2013-06-17 13:33:00,85.1,-99.9,30.06,North,355,1.0,-999.0,0,-99.99,,,0.00,weatherlink.com 1.10,2013-06-17 17:33:00,
2013-06-17 13:48:00,85.9,-99.9,30.06,NW,325,5.0,-999.0,0,-99.99,,,0.00,weatherlink.com 1.10,2013-06-17 17:48:00,
2013-06-17 14:03:00,86.3,-99.9,30.06,NW,305,0.0,-999.0,0,-99.99,,,0.00,weatherlink.com 1.10,2013-06-17 18:03:00,
2013-06-17 14:18:00,85.9,-99.9,30.06,NNE,17,0.0,-999.0,0,-99.99,,,0.00,weatherlink.com 1.10,2013-06-17 18:18:00,
2013-06-17 14:33:00,84.9,-99.9,30.05,NNW,331,2.0,-999.0,0,-99.99,,,0.00,weatherlink.com 1.10,2013-06-17 18:33:00,
2013-06-17 14:48:00,84.5,-99.9,30.04,NNE,32,1.0,-999.0,0,-99.99,,,0.00,weatherlink.com 1.10,2013-06-17 18:48:00,
2013-06-17 15:03:00,84.1,-99.9,30.04,North,360,1.0,-999.0,0,-99.99,,,0.00,weatherlink.com 1.10,2013-06-17 19:03:00,
2013-06-17 15:18:00,85.2,-99.9,30.03,NNW,345,0.0,-999.0,0,-99.99,,,0.00,weatherlink.com 1.10,2013-06-17 19:18:00,
2013-06-17 15:33:00,85.8,-99.9,30.03,NW,323,0.0,-999.0,0,-99.99,,,0.00,weatherlink.com 1.10,2013-06-17 19:33:00,
2013-06-17 15:48:00,84.6,-99.9,30.02,NW,304,0.0,-999.0,0,-99.99,,,0.00,weatherlink.com 1.10,2013-06-17 19:48:00,
2013-06-17 16:03:00,84.1,-99.9,30.02,North,5,1.0,-999.0,0,-99.99,,,0.00,weatherlink.com 1.10,2013-06-17 20:03:00,
2013-06-17 16:19:00,84.4,-99.9,30.02,WNW,283,1.0,-999.0,0,-99.99,,,0.00,weatherlink.com 1.10,2013-06-17 20:19:00,
2013-06-17 16:34:00,83.8,-99.9,30.01,NW,316,1.0,-999.0,0,-99.99,,,0.00,weatherlink.com 1.10,2013-06-17 20:34:00,
2013-06-17 16:49:00,83.2,-99.9,30.01,NW,320,2.0,-999.0,0,-99.99,,,0.00,weatherlink.com 1.10,2013-06-17 20:49:00,
2013-06-17 17:04:00,83.2,-99.9,30.00,WNW,284,5.0,-999.0,0,-99.99,,,0.00,weatherlink.com 1.10,2013-06-17 21:04:00,
2013-06-17 17:19:00,83.5,-99.9,30.00,North,355,5.0,-999.0,0,-99.99,,,0.00,weatherlink.com 1.10,2013-06-17 21:19:00,
2013-06-17 17:34:00,83.1,-99.9,30.00,NW,312,5.0,-999.0,0,-99.99,,,0.00,weatherlink.com 1.10,2013-06-17 21:34:00,
2013-06-17 17:49:00,82.5,-99.9,30.00,NW,311,0.0,-999.0,0,-99.99,,,0.00,weatherlink.com 1.10,2013-06-17 21:49:00,
2013-06-17 18:04:00,82.2,-99.9,30.02,North,355,2.0,-999.0,0,-99.99,,,0.00,weatherlink.com 1.10,2013-06-17 22:04:00,
2013-06-17 18:19:00,82.2,-99.9,30.01,WNW,285,3.0,-999.0,0,-99.99,,,0.00,weatherlink.com 1.10,2013-06-17 22:19:00,
2013-06-17 18:34:00,81.9,-99.9,30.02,NNW,335,2.0,-999.0,0,-99.99,,,0.00,weatherlink.com 1.10,2013-06-17 22:34:00,
2013-06-17 18:49:00,81.7,-99.9,30.02,NNW,329,4.0,-999.0,0,-99.99,,,0.00,weatherlink.com 1.10,2013-06-17 22:49:00,
2013-06-17 19:04:00,81.5,-99.9,30.02,North,5,2.0,-999.0,0,-99.99,,,0.00,weatherlink.com 1.10,2013-06-17 23:04:00,
2013-06-17 19:19:00,81.4,-99.9,30.02,WNW,302,0.0,-999.0,0,-99.99,,,0.00,weatherlink.com 1.10,2013-06-17 23:19:00,
2013-06-17 19:34:00,81.2,-99.9,30.02,North,360,5.0,-999.0,0,-99.99,,,0.00,weatherlink.com 1.10,2013-06-17 23:34:00,
2013-06-17 19:50:00,80.9,-99.9,30.02,North,360,0.0,-999.0,0,-99.99,,,0.00,weatherlink.com 1.10,2013-06-17 23:50:00,
2013-06-17 20:05:00,79.9,-99.9,30.02,NE,49,4.0,-999.0,0,-99.99,,,0.00,weatherlink.com 1.10,2013-06-18 00:05:00,
2013-06-17 20:20:00,79.4,-99.9,30.01,NNE,28,1.0,-999.0,0,-99.99,,,0.00,weatherlink.com 1.10,2013-06-18 00:20:00,
2013-06-17 20:35:00,79.1,-99.9,30.02,NNE,20,0.0,-999.0,0,-99.99,,,0.00,weatherlink.com 1.10,2013-06-18 00:35:00,
2013-06-17 20:50:00,79.1,-99.9,30.03,NNE,13,0.0,-999.0,0,-99.99,,,0.00,weatherlink.com 1.10,2013-06-18 00:50:00,
2013-06-17 21:05:00,78.9,-99.9,30.02,NNW,335,0.0,-999.0,0,-99.99,,,0.00,weatherlink.com 1.10,2013-06-18 01:05:00,
2013-06-17 21:20:00,78.7,-99.9,30.02,West,277,1.0,-999.0,0,-99.99,,,0.00,weatherlink.com 1.10,2013-06-18 01:20:00,
2013-06-17 21:35:00,78.9,-99.9,30.02,North,360,0.0,-999.0,0,-99.99,,,0.00,weatherlink.com 1.10,2013-06-18 01:35:00,
2013-06-17 21:50:00,79.3,-99.9,30.02,NE,36,0.0,-999.0,0,-99.99,,,0.00,weatherlink.com 1.10,2013-06-18 01:50:00,
2013-06-17 22:05:00,79.5,-99.9,30.03,ENE,61,2.0,-999.0,0,-99.99,,,0.00,weatherlink.com 1.10,2013-06-18 02:05:00,
2013-06-17 22:20:00,79.7,-99.9,30.03,NNW,342,3.0,-999.0,0,-99.99,,,0.00,weatherlink.com 1.10,2013-06-18 02:20:00,
2013-06-17 22:35:00,80.0,-99.9,30.04,SE,141,0.0,-999.0,0,-99.99,,,0.00,weatherlink.com 1.10,2013-06-18 02:35:00,
2013-06-17 22:50:00,80.1,-99.9,30.05,NE,51,0.0,-999.0,0,-99.99,,,0.00,weatherlink.com 1.10,2013-06-18 02:50:00,
2013-06-17 23:05:00,79.9,-99.9,30.05,NNE,30,0.0,-999.0,0,-99.99,,,0.00,weatherlink.com 1.10,2013-06-18 03:05:00,
2013-06-17 23:21:00,79.6,-99.9,30.05,North,9,0.0,-999.0,0,-99.99,,,0.00,weatherlink.com 1.10,2013-06-18 03:21:00,
2013-06-17 23:36:00,77.5,-99.9,30.04,North,360,1.0,-999.0,0,-99.99,,,0.00,weatherlink.com 1.10,2013-06-18 03:36:00,
2013-06-17 23:51:00,76.9,-99.9,30.03,North,5,0.0,-999.0,0,-99.99,,,0.00,weatherlink.com 1.10,2013-06-18 03:51:00,